TimeEST,TemperatureF,Dew PointF,Humidity,Sea Level PressureIn,VisibilityMPH,Wind Direction,Wind SpeedMPH,Gust SpeedMPH,PrecipitationIn,Events,Conditions,WindDirDegrees,DateUTC
12:12 AM,45.1,38.8,79,30.10,10.0,Calm,Calm,-,N/A,,Overcast,0,2012-11-20 05:12:00
12:32 AM,46.9,37.2,69,30.10,10.0,Calm,Calm,-,N/A,,Overcast,0,2012-11-20 05:32:00
12:52 AM,47.5,36.5,66,30.10,10.0,SE,3.5,-,N/A,,Overcast,130,2012-11-20 05:52:00
1:12 AM,47.5,36.7,66,30.09,10.0,SE,3.5,-,N/A,,Overcast,130,2012-11-20 06:12:00
1:32 AM,47.7,36.5,65,30.09,10.0,Calm,Calm,-,N/A,,Overcast,0,2012-11-20 06:32:00
1:53 AM,47.5,36.9,67,30.09,10.0,Calm,Calm,-,N/A,Rain,Rain,0,2012-11-20 06:53:00
2:13 AM,46.6,38.3,73,30.10,7.0,Calm,Calm,-,N/A,Rain,Light Rain,0,2012-11-20 07:13:00
2:33 AM,46.0,39.2,77,30.10,7.0,South,3.5,-,N/A,Rain,Rain,170,2012-11-20 07:33:00
2:53 AM,45.3,40.5,83,30.10,7.0,SE,3.5,-,N/A,Rain,Light Rain,130,2012-11-20 07:53:00
3:13 AM,44.8,41.5,88,30.10,5.0,ESE,3.5,-,N/A,Rain,Rain,110,2012-11-20 08:13:00
3:33 AM,45.0,42.6,91,30.10,4.0,Calm,Calm,-,N/A,Rain,Rain,0,2012-11-20 08:33:00
3:53 AM,45.3,42.8,91,30.10,4.0,Calm,Calm,-,N/A,Rain,Light Rain,0,2012-11-20 08:53:00
4:13 AM,44.6,42.6,93,30.10,2.5,Calm,Calm,-,N/A,,Overcast,0,2012-11-20 09:13:00
4:33 AM,45.0,42.6,91,30.09,4.0,SE,3.5,-,N/A,,Light Drizzle,130,2012-11-20 09:33:00
4:54 AM,44.8,42.1,90,30.09,4.0,SE,4.6,-,N/A,,Overcast,130,2012-11-20 09:54:00
5:14 AM,44.4,41.9,91,30.09,4.0,Calm,Calm,-,N/A,,Overcast,0,2012-11-20 10:14:00
5:34 AM,44.2,41.9,91,30.09,3.0,SE,3.5,-,N/A,,Overcast,140,2012-11-20 10:34:00
5:54 AM,44.2,41.9,91,30.09,4.0,SE,4.6,-,N/A,,Overcast,140,2012-11-20 10:54:00
6:14 AM,44.1,41.4,90,30.08,4.0,Calm,Calm,-,N/A,,Overcast,0,2012-11-20 11:14:00
6:34 AM,44.1,41.4,90,30.08,4.0,Calm,Calm,-,N/A,,Overcast,0,2012-11-20 11:34:00
7:14 AM,44.2,41.7,91,30.09,4.0,Calm,Calm,-,N/A,,Overcast,0,2012-11-20 12:14:00
7:34 AM,44.2,41.9,91,30.10,4.0,Calm,Calm,-,N/A,,Overcast,0,2012-11-20 12:34:00
7:55 AM,44.1,41.9,92,30.10,3.0,Calm,Calm,-,N/A,,Overcast,0,2012-11-20 12:55:00
8:15 AM,43.7,41.9,93,30.10,0.8,Calm,Calm,-,N/A,,Overcast,0,2012-11-20 13:15:00
8:35 AM,44.1,42.3,93,30.10,0.8,Calm,Calm,-,N/A,,Overcast,0,2012-11-20 13:35:00
8:55 AM,44.1,42.3,93,30.10,1.0,Calm,Calm,-,N/A,Rain,Rain,0,2012-11-20 13:55:00
9:15 AM,44.6,42.8,93,30.10,1.5,Calm,Calm,-,N/A,Rain,Light Rain,0,2012-11-20 14:15:00
9:35 AM,44.6,42.4,92,30.10,2.5,Calm,Calm,-,N/A,Rain,Light Rain,0,2012-11-20 14:35:00
9:55 AM,45.0,42.8,92,30.10,2.5,Calm,Calm,-,N/A,,Overcast,0,2012-11-20 14:55:00
10:15 AM,45.3,43.0,92,30.09,2.5,Calm,Calm,-,N/A,,Overcast,0,2012-11-20 15:15:00
10:35 AM,45.5,43.2,92,30.09,2.5,SE,3.5,-,N/A,,Overcast,130,2012-11-20 15:35:00
10:56 AM,45.7,43.3,92,30.09,2.0,Calm,Calm,-,N/A,,Overcast,0,2012-11-20 15:56:00
11:16 AM,46.2,43.7,91,30.09,2.5,Calm,Calm,-,N/A,,Overcast,0,2012-11-20 16:16:00
11:36 AM,46.4,43.7,90,30.10,3.0,Calm,Calm,-,N/A,,Overcast,0,2012-11-20 16:36:00
11:56 AM,46.4,43.7,90,30.09,2.5,Calm,Calm,-,N/A,,Overcast,0,2012-11-20 16:56:00
12:16 PM,46.4,43.7,90,30.09,2.5,Calm,Calm,-,N/A,,Overcast,0,2012-11-20 17:16:00
12:36 PM,46.8,44.1,90,30.08,2.5,SE,3.5,-,N/A,,Overcast,130,2012-11-20 17:36:00
12:56 PM,47.3,44.2,89,30.09,3.0,Calm,Calm,-,N/A,,Overcast,0,2012-11-20 17:56:00
1:16 PM,47.5,44.1,88,30.08,3.0,Calm,Calm,-,N/A,,Overcast,0,2012-11-20 18:16:00
1:36 PM,48.6,44.6,86,30.09,3.0,NW,3.5,-,N/A,,Overcast,310,2012-11-20 18:36:00
1:51 PM,48.4,44.1,85,30.10,4.0,West,3.5,-,N/A,,Overcast,260,2012-11-20 18:51:00
2:12 PM,48.9,44.6,85,30.10,4.0,West,4.6,-,N/A,,Overcast,270,2012-11-20 19:12:00
2:32 PM,48.6,44.4,86,30.10,3.0,WNW,3.5,-,N/A,,Haze,290,2012-11-20 19:32:00
3:12 PM,48.6,44.4,86,30.10,3.0,Calm,Calm,-,N/A,,Haze,0,2012-11-20 20:12:00
3:32 PM,47.5,44.1,88,30.10,2.5,Calm,Calm,-,N/A,,Overcast,0,2012-11-20 20:32:00
3:52 PM,48.2,44.2,86,30.10,2.5,Calm,Calm,-,N/A,,Overcast,0,2012-11-20 20:52:00
4:12 PM,47.7,43.9,87,30.10,3.0,Calm,Calm,-,N/A,,Overcast,0,2012-11-20 21:12:00
4:53 PM,47.5,43.9,87,30.11,3.0,Calm,Calm,-,N/A,,Overcast,0,2012-11-20 21:53:00
5:13 PM,47.3,43.7,87,30.11,3.0,Calm,Calm,-,N/A,,Overcast,0,2012-11-20 22:13:00
5:33 PM,48.4,44.2,86,30.12,4.0,Calm,Calm,-,N/A,,Overcast,0,2012-11-20 22:33:00
5:53 PM,46.9,44.1,90,30.12,3.0,Calm,Calm,-,N/A,,Overcast,0,2012-11-20 22:53:00
6:13 PM,47.1,44.1,89,30.12,4.0,Calm,Calm,-,N/A,,Overcast,0,2012-11-20 23:13:00
6:33 PM,46.6,44.1,91,30.13,3.0,Calm,Calm,-,N/A,,Overcast,0,2012-11-20 23:33:00
6:53 PM,46.8,44.4,92,30.13,3.0,Calm,Calm,-,N/A,,Overcast,0,2012-11-20 23:53:00
7:13 PM,46.4,43.9,91,30.13,3.0,Calm,Calm,-,N/A,,Overcast,0,2012-11-21 00:13:00
7:33 PM,46.6,43.9,90,30.13,3.0,Calm,Calm,-,N/A,,Overcast,0,2012-11-21 00:33:00
7:54 PM,46.8,43.5,88,30.14,5.0,Calm,Calm,-,N/A,,Overcast,0,2012-11-21 00:54:00
8:14 PM,46.0,43.7,92,30.14,3.0,Calm,Calm,-,N/A,,Overcast,0,2012-11-21 01:14:00
8:34 PM,46.0,43.7,92,30.14,4.0,Calm,Calm,-,N/A,,Overcast,0,2012-11-21 01:34:00
8:54 PM,46.8,43.9,90,30.15,4.0,Calm,Calm,-,N/A,,Overcast,0,2012-11-21 01:54:00
9:14 PM,47.3,42.8,84,30.15,5.0,Calm,Calm,-,N/A,,Overcast,0,2012-11-21 02:14:00
9:34 PM,46.2,43.5,90,30.15,4.0,Calm,Calm,-,N/A,,Overcast,0,2012-11-21 02:34:00
9:54 PM,46.4,43.0,88,30.15,5.0,Calm,Calm,-,N/A,,Overcast,0,2012-11-21 02:54:00
10:14 PM,46.2,43.0,88,30.15,5.0,Calm,Calm,-,N/A,,Overcast,0,2012-11-21 03:14:00
10:34 PM,46.0,43.0,89,30.15,5.0,Calm,Calm,-,N/A,,Overcast,0,2012-11-21 03:34:00
10:55 PM,45.9,43.0,90,30.15,5.0,Calm,Calm,-,N/A,,Overcast,0,2012-11-21 03:55:00
11:15 PM,45.5,43.2,92,30.15,4.0,Calm,Calm,-,N/A,,Overcast,0,2012-11-21 04:15:00
11:35 PM,45.7,43.2,91,30.15,5.0,Calm,Calm,-,N/A,,Overcast,0,2012-11-21 04:35:00
11:55 PM,45.7,43.0,90,30.15,4.0,Calm,Calm,-,N/A,,Overcast,0,2012-11-21 04:55:00